GFSNE_prec_cthk_231.txt.gz
RH
67 72 77 62 57 51 47 49 45 46 42 42 41 39 37 35 36 37 37 34 33 33 32 30 30 30 30 29 29 29 30 32 34 38 48 47 51 48
76 81 64 60 54 51 52 47 45 43 43 42 43 38 34 35 38 40 40 37 32 31 31 31 32 33 33 32 32 34 36 37 39 45 52 56 59 53
83 69 59 57 53 52 48 44 42 42 42 45 45 41 39 39 41 40 38 34 32 33 33 32 34 34 36 37 37 38 39 41 44 51 58 66 62 66
82 67 52 58 56 50 44 41 44 46 48 48 45 45 42 41 40 39 36 36 31 29 31 34 35 36 38 39 41 42 44 45 48 57 68 68 62 81
68 51 59 53 51 48 43 44 46 52 52 51 48 46 44 42 39 39 36 31 33 34 35 35 36 36 37 38 39 43 47 48 53 62 72 72 65 83
59 61 53 51 50 47 43 45 52 55 54 52 51 45 43 42 41 37 32 34 35 37 37 36 36 37 37 38 39 41 47 52 53 61 65 68 65 70
49 48 52 54 50 46 44 50 58 60 57 52 48 46 45 43 42 38 34 36 33 35 36 36 36 36 37 38 41 43 46 49 58 62 69 70 67 70
51 52 50 52 50 49 54 62 63 61 54 49 49 47 45 43 42 41 37 35 32 34 34 37 38 39 40 41 46 49 53 53 62 73 74 75 73 72
54 51 52 53 56 57 59 58 59 55 53 52 51 48 42 42 41 41 42 38 36 37 38 38 40 42 42 46 48 54 56 57 62 71 79 81 83 90
58 54 54 55 56 55 58 60 56 59 55 55 51 46 41 40 42 41 39 37 37 39 41 41 41 44 44 47 50 57 63 71 79 86 87 91 87 94
59 54 51 49 51 59 62 62 59 56 57 54 52 44 38 41 40 40 41 37 38 41 45 45 46 45 46 52 58 58 67 76 86 88 93 93 90 97
58 56 56 59 65 66 65 64 62 61 57 59 49 42 43 40 38 38 37 37 39 42 47 48 49 48 51 58 66 71 75 88 90 90 91 92 93 97
59 58 65 69 71 69 68 67 64 60 62 55 45 46 41 40 38 35 34 36 40 45 47 49 50 52 58 63 70 79 82 89 94 98 96 98 99 98
66 65 69 70 72 72 69 66 66 65 57 52 45 41 39 39 35 33 34 34 38 43 47 51 54 56 62 64 76 82 91 90 95 97 98 98 98 97
68 72 73 72 76 75 73 71 67 64 58 49 43 40 40 37 33 33 32 33 36 41 44 48 54 59 70 71 77 82 86 91 96 97 94 96 98 99
78 80 78 79 79 80 78 75 71 66 59 52 48 41 37 33 33 32 31 33 36 39 42 47 54 60 70 83 83 83 91 93 97 98 99 98 98 98
81 80 81 83 84 83 79 76 70 65 60 53 46 39 37 35 34 32 32 34 36 38 40 44 52 60 68 77 93 90 96 97 97 98 98 98 97 97
83 83 87 87 84 81 79 75 66 61 51 43 38 37 36 35 34 34 35 36 37 39 41 44 50 57 67 75 90 97 96 98 98 98 98 97 97 97
90 89 88 86 85 83 76 68 58 51 39 37 38 37 36 34 35 36 38 40 41 43 44 47 52 57 67 75 81 96 98 98 98 98 98 98 97 97
89 87 89 88 83 77 68 59 48 39 38 37 36 36 36 36 37 39 41 42 45 46 48 53 59 64 71 77 84 87 97 98 98 98 97 97 98 98
86 86 86 85 79 66 62 49 40 40 40 39 40 39 38 39 40 40 42 44 49 52 55 58 65 74 82 85 86 90 95 98 98 98 98 98 97 97
85 85 80 70 62 58 49 41 44 45 42 40 39 39 39 40 40 43 46 50 54 57 60 66 74 86 93 93 92 96 98 98 98 98 97 97 97 97
75 68 64 63 55 46 41 44 43 40 37 36 36 37 37 40 43 47 51 53 58 63 67 73 82 92 96 98 98 98 98 98 98 98 98 97 98 98

GFSNE_prec_cthk_234.txt.gz
RH
74 77 76 72 73 75 67 58 53 49 46 41 40 38 37 35 35 34 34 33 33 33 32 32 31 32 32 33 33 33 30 29 29 30 31 31 33 38
75 79 78 75 75 70 59 52 52 46 42 39 40 40 39 38 38 37 35 31 30 30 31 30 30 29 29 31 31 31 33 33 33 33 34 35 37 45
74 79 77 79 78 65 55 54 50 43 42 42 43 43 42 40 39 37 33 33 30 31 30 28 27 29 30 29 29 30 31 34 35 35 35 37 44 50
72 73 78 83 81 56 53 56 44 41 39 44 43 43 45 44 39 37 34 32 31 31 30 29 29 29 28 27 26 27 29 32 34 36 36 39 48 58
71 78 78 78 66 58 54 45 44 41 41 40 44 47 46 43 41 38 35 32 31 31 31 32 31 29 27 25 26 27 29 31 31 36 38 43 56 63
68 74 80 70 54 48 47 45 45 45 44 45 49 50 46 42 39 37 35 35 32 32 32 34 33 31 28 28 29 30 31 32 33 34 40 50 58 61
71 66 63 50 46 48 46 44 45 51 52 52 50 48 46 47 44 38 37 35 33 33 34 34 34 32 29 27 29 30 33 33 35 38 48 54 58 62
75 61 56 54 50 46 47 46 49 51 51 49 47 47 49 47 45 39 39 37 34 35 36 34 34 34 30 28 30 32 36 38 40 41 51 58 67 67
65 59 55 53 52 50 50 51 50 45 49 50 48 51 49 49 40 40 41 38 39 37 37 34 34 32 30 31 36 37 42 46 47 50 57 64 72 74
60 56 58 56 52 49 53 48 48 54 54 53 54 52 52 48 42 42 37 38 38 39 40 33 33 34 32 36 39 43 46 50 54 63 68 71 76 76
57 60 60 55 57 57 53 54 57 57 56 56 54 53 54 50 43 39 40 38 37 39 40 35 34 34 35 38 42 45 51 58 63 68 79 81 83 82
63 58 59 62 58 57 57 58 57 57 56 56 57 56 54 49 40 40 38 39 39 39 37 35 37 39 37 39 44 48 55 62 69 79 80 89 95 90
63 65 59 59 60 64 62 61 58 58 58 59 61 57 53 42 43 39 38 37 39 37 34 35 38 41 44 43 46 52 60 69 80 85 88 93 97 96
70 67 64 67 69 65 65 62 62 63 61 64 61 57 51 46 40 39 37 39 34 32 32 35 39 44 45 48 51 55 63 72 83 91 93 98 98 97
77 78 79 75 70 67 64 63 63 65 66 67 64 57 50 45 41 42 40 36 34 33 33 36 41 44 47 52 56 58 66 75 79 92 94 97 98 98
83 86 83 74 69 68 70 67 70 72 72 68 64 60 55 50 47 41 39 36 35 34 34 36 39 43 48 55 60 65 68 83 89 96 95 97 98 98
88 87 85 75 70 76 81 78 77 74 71 69 64 60 54 50 42 38 37 36 36 36 36 36 38 42 48 56 62 71 74 88 97 97 98 98 98 98
92 88 80 79 78 84 82 80 76 73 71 65 59 51 44 38 38 37 36 36 38 39 38 39 40 44 49 56 64 73 81 93 98 98 98 98 97 98
89 85 82 82 85 84 81 80 77 69 63 55 48 42 35 35 37 37 39 40 39 40 41 41 43 47 54 60 66 76 84 93 98 98 98 98 98 97
90 88 88 86 86 84 82 77 71 65 56 46 38 35 35 35 37 40 38 39 40 41 42 45 48 52 60 66 73 77 86 93 98 98 98 98 98 97
90 87 85 86 86 83 79 74 64 53 43 37 36 36 36 37 37 38 38 39 42 45 47 51 54 59 67 76 84 84 87 97 98 98 98 98 98 98
88 86 84 84 84 79 70 58 49 42 38 39 36 35 33 36 37 38 40 44 45 48 53 57 63 69 76 88 94 92 89 94 98 98 97 97 98 97
87 84 84 81 73 60 51 45 38 36 36 33 31 31 31 34 38 40 45 47 49 53 59 63 69 76 86 95 98 98 97 97 98 98 97 97 97 97

GFSNE_prec_cthk_237.txt.gz
RH
67 71 76 76 79 78 80 77 73 64 66 55 53 47 43 39 33 32 31 31 30 26 25 25 24 24 26 27 27 28 30 29 28 28 28 29 29 28
67 71 73 75 79 79 79 76 68 67 67 54 56 48 40 36 36 33 32 33 29 27 25 27 25 25 24 27 27 28 28 27 26 25 26 28 29 29
68 72 75 77 76 77 77 73 77 73 61 58 49 45 40 38 37 36 37 35 31 27 24 26 26 27 25 24 26 27 26 25 24 24 24 24 27 29
71 75 76 76 72 75 70 81 76 63 56 48 48 47 43 42 41 39 39 35 32 30 30 30 28 27 25 23 25 26 25 25 25 24 24 24 26 28
74 76 75 74 72 74 71 67 63 51 48 47 49 51 48 44 43 42 37 35 33 30 30 27 28 26 26 26 25 25 26 26 25 26 26 25 26 29
77 76 75 78 80 67 65 62 50 50 51 47 46 48 47 45 41 38 39 38 33 31 30 30 28 28 27 25 27 28 28 28 28 29 28 27 31 36
76 73 74 78 69 68 63 60 56 54 48 48 49 49 45 40 43 42 43 39 35 32 30 30 28 28 28 27 28 29 30 28 29 33 32 33 39 41
74 71 75 72 65 68 59 57 56 50 54 52 49 47 47 48 47 45 44 39 34 33 31 31 31 30 29 29 30 30 30 30 30 34 36 37 45 47
75 76 73 69 62 62 60 57 52 54 49 47 49 52 50 50 49 47 46 43 38 35 34 31 33 31 31 32 31 31 32 33 35 37 41 44 51 58
77 76 71 67 63 64 61 57 56 54 54 53 51 51 49 48 47 46 48 44 38 38 34 34 33 33 32 33 33 32 32 35 38 38 46 52 59 68
81 75 69 69 64 63 60 59 57 55 56 57 54 51 49 49 50 48 48 45 40 37 40 37 33 33 33 33 32 32 34 37 39 44 55 62 69 76
78 75 69 67 68 65 61 59 58 59 59 57 53 51 51 51 50 50 48 44 41 41 37 35 36 38 33 33 34 33 33 37 43 49 62 72 77 86
84 80 71 70 70 67 66 65 66 67 63 56 55 52 52 53 52 51 46 45 43 38 38 39 39 37 37 36 38 36 36 38 45 54 63 81 86 92
89 77 77 72 70 74 74 74 75 69 61 55 56 59 56 54 54 51 48 45 40 38 41 39 36 35 35 37 39 39 41 42 47 56 68 87 93 94
75 80 79 76 80 80 80 81 76 66 59 60 62 65 63 58 55 54 53 49 46 44 37 32 34 35 37 40 40 43 46 47 52 60 73 90 96 97
76 75 79 82 82 85 86 81 69 63 62 63 65 66 61 61 61 61 56 52 46 37 33 32 33 36 39 40 44 47 51 53 57 64 81 97 98 98
77 84 87 89 91 92 85 72 70 67 68 67 68 64 62 62 61 54 50 43 37 35 34 35 37 38 39 42 47 51 57 61 68 73 92 98 98 98
86 92 96 97 96 88 79 77 73 72 74 71 68 64 61 59 54 48 40 36 34 35 37 36 36 39 43 46 52 57 63 73 76 84 98 98 97 98
95 96 97 95 89 85 76 80 76 73 71 70 63 58 55 50 43 37 35 35 36 35 35 35 37 42 45 51 58 65 68 77 87 89 98 98 97 97
91 95 96 93 91 83 83 81 74 71 70 66 61 52 44 38 36 36 35 34 34 35 36 39 41 45 51 57 64 70 77 80 89 98 98 98 97 97
93 96 91 91 87 87 86 79 75 71 66 61 49 41 36 36 35 34 34 34 34 36 40 42 46 51 56 63 71 78 84 84 89 98 98 98 97 97
97 94 93 89 90 87 79 75 71 63 57 45 38 33 32 32 33 33 34 35 38 41 44 48 54 58 64 71 79 88 92 91 88 95 98 97 97 97
92 88 88 89 85 78 73 68 62 50 40 33 31 28 29 31 32 33 35 37 40 43 46 53 59 65 70 77 87 94 98 98 94 97 98 98 97 97

GFSNE_prec_cthk_240.txt.gz
RH
60 61 62 63 66 69 71 74 78 76 73 68 62 64 62 57 47 44 39 34 31 30 29 29 25 24 23 22 23 24 23 23 24 24 24 22 22 22
62 63 65 70 72 74 74 76 80 77 71 65 64 66 64 50 41 38 38 37 33 32 31 28 27 27 24 24 24 24 23 22 23 24 24 25 24 23
64 67 71 75 78 77 77 80 78 76 73 63 71 63 54 44 42 41 41 38 35 33 29 29 30 27 24 22 23 23 22 21 22 22 22 24 25 26
70 77 77 74 81 84 80 83 79 75 68 64 62 60 49 44 43 41 38 38 36 33 32 32 30 27 25 24 23 22 21 24 24 24 24 24 25 26
72 76 79 83 84 77 82 79 77 74 69 65 63 50 48 49 45 41 40 37 33 35 35 33 32 29 26 25 23 24 23 24 26 25 24 25 25 26
74 76 78 84 81 84 81 78 78 72 62 61 58 54 52 45 44 42 38 36 37 36 35 35 33 32 28 26 27 26 24 25 25 26 26 26 26 28
70 72 79 79 78 85 81 78 77 65 63 61 55 56 49 47 42 41 40 39 39 37 34 33 31 33 31 29 29 27 25 26 26 27 28 28 29 30
76 71 73 78 83 84 81 74 73 62 66 59 60 56 51 47 45 45 44 41 38 37 34 30 29 30 30 29 30 28 27 26 25 25 26 28 32 35
69 65 75 82 86 85 78 74 69 67 68 64 59 55 52 49 49 48 46 42 40 36 33 32 32 32 33 32 32 30 29 26 23 22 23 27 35 40
63 73 84 89 88 82 78 74 72 68 68 63 60 56 52 52 52 49 46 43 39 37 37 36 33 30 32 34 34 33 31 26 24 23 24 28 36 44
74 82 89 92 87 82 78 75 73 71 67 66 60 57 59 59 55 52 47 43 40 39 38 33 33 34 33 34 35 33 30 27 26 25 26 29 39 49
79 91 96 91 86 83 81 76 73 69 71 66 62 66 66 62 56 50 46 45 44 42 39 36 37 38 35 36 38 31 27 28 28 26 28 32 43 57
90 95 96 88 89 86 82 78 73 73 70 72 74 72 69 60 53 49 47 45 44 43 43 40 40 40 40 38 32 30 28 28 28 29 30 37 48 69
94 95 93 89 90 87 82 78 78 74 77 83 78 69 64 57 52 50 50 49 47 48 44 42 42 42 37 33 32 30 33 32 32 35 38 42 54 77
94 94 95 96 92 81 82 81 77 81 91 85 72 63 58 56 55 54 56 58 55 55 49 44 39 36 34 34 34 34 31 35 36 40 44 48 63 83
98 97 96 90 87 82 79 78 87 96 89 74 65 66 62 58 59 59 59 55 53 47 44 39 35 33 33 35 35 37 38 41 44 48 53 55 76 86
95 93 93 85 83 85 87 94 98 89 81 74 68 65 61 61 60 59 56 51 46 42 37 34 34 34 33 35 38 41 44 49 53 59 70 70 87 97
89 90 81 80 88 95 97 98 94 84 82 72 68 67 65 61 56 56 51 43 39 35 34 33 33 33 35 37 41 48 55 61 66 73 81 84 97 98
89 83 79 93 98 98 97 94 86 84 76 70 67 64 62 56 55 49 40 37 34 33 32 32 32 35 37 40 46 54 63 69 75 84 91 97 97 97
88 85 98 96 98 95 90 87 82 76 75 72 65 62 57 54 45 38 35 33 32 32 31 31 34 37 41 47 54 61 67 74 80 88 98 98 98 97
99 95 97 96 95 90 88 82 79 78 73 69 63 57 52 40 36 33 32 31 31 31 33 35 38 41 46 52 60 68 74 80 85 87 96 97 97 97
98 93 98 94 86 88 88 83 76 70 67 62 53 46 34 33 31 31 30 30 31 33 36 40 43 47 53 58 66 73 80 87 91 90 89 97 97 97
91 92 94 96 88 86 85 79 71 63 58 51 39 28 31 30 30 30 30 30 32 34 37 41 45 52 57 65 71 78 86 94 97 96 91 94 97 97

GFSNE_prec_cthk_246.txt.gz
RH
40 44 47 49 47 51 59 68 76 76 72 76 85 85 87 86 82 79 69 61 53 50 45 43 36 34 29 26 26 26 25 24 22 20 19 17 17 17
42 42 44 46 47 54 62 70 75 81 84 87 91 87 89 85 85 83 73 63 53 50 48 43 37 33 30 30 29 28 26 25 22 20 17 17 17 19
48 53 55 54 54 60 63 70 76 80 86 93 95 87 79 85 87 85 74 64 54 51 49 44 38 34 33 33 31 29 26 25 21 20 18 17 17 17
63 73 56 59 65 60 64 70 72 78 84 97 87 89 73 84 90 81 75 69 56 50 50 43 39 35 35 34 31 30 28 24 21 20 16 15 17 19
72 72 68 64 66 62 65 71 81 86 88 95 87 85 77 82 88 84 73 62 57 57 52 44 40 38 37 35 33 31 26 23 20 17 16 16 18 21
63 62 67 63 62 64 70 77 85 90 95 98 85 84 85 86 84 80 75 65 62 64 53 46 41 40 38 36 33 27 24 22 20 17 16 18 20 21
66 70 62 60 54 60 67 77 83 85 95 93 85 86 88 83 80 80 77 68 67 64 54 46 44 41 40 36 29 26 23 21 18 17 17 19 20 20
61 54 60 56 53 57 67 70 78 81 86 87 83 82 85 82 77 76 76 71 69 64 57 48 45 44 41 32 28 24 22 18 18 19 19 19 19 17
69 65 59 59 57 58 68 67 71 76 73 80 81 80 86 79 79 78 80 79 75 67 57 52 51 47 36 31 27 23 21 20 21 20 20 20 17 13
54 57 61 61 60 57 58 58 63 72 70 79 78 75 71 76 79 83 81 78 74 68 59 57 50 41 35 30 27 23 23 23 22 22 22 18 15 13
48 48 47 57 49 51 60 52 54 58 75 73 81 76 80 85 87 85 82 77 74 67 63 57 44 36 32 28 26 25 25 24 24 23 20 17 15 14
45 52 50 52 61 62 58 55 64 74 84 77 77 82 83 93 94 88 84 84 75 72 68 52 45 38 34 30 30 30 30 29 24 21 19 19 20 21
56 56 56 59 58 65 62 71 74 84 83 83 80 82 91 97 93 90 91 85 74 64 54 50 47 40 35 32 31 31 28 23 21 22 21 20 22 24
57 61 63 65 66 68 73 80 82 83 78 89 96 98 98 93 90 98 90 72 67 62 56 50 42 36 34 32 31 28 26 26 25 24 25 27 30 33
63 68 70 73 71 76 74 72 76 83 88 94 98 96 94 97 98 89 79 74 68 60 51 44 39 35 34 31 28 28 26 28 29 29 29 31 35 41
66 67 75 79 79 76 79 85 82 88 96 97 98 94 98 98 87 80 80 75 65 53 47 42 37 35 30 28 29 30 31 34 36 37 38 41 45 54
73 71 72 79 81 79 83 90 93 97 97 98 97 96 96 94 86 83 75 69 56 50 45 39 35 31 28 28 31 34 37 40 44 47 52 59 61 71
71 76 73 81 82 83 96 97 99 97 97 98 95 94 94 89 81 77 69 60 53 47 39 35 30 28 27 29 34 39 43 46 51 55 64 76 81 86
64 76 80 80 86 86 98 98 98 98 96 97 96 95 89 83 75 67 64 54 45 37 32 29 27 27 27 32 36 40 45 49 57 63 71 84 91 95
58 72 80 82 88 90 96 97 98 99 97 95 96 91 86 80 71 63 53 42 32 28 27 28 27 28 30 34 39 43 47 54 60 66 73 87 95 97
60 66 85 88 91 92 96 97 98 96 94 95 95 89 81 72 64 53 41 32 29 26 23 25 26 28 31 36 39 43 51 60 66 72 76 85 97 97
63 70 87 90 91 94 96 95 95 94 96 96 90 80 71 62 51 42 33 29 28 25 25 26 28 32 36 36 40 47 57 66 72 77 80 81 95 97
64 67 95 98 94 98 95 97 96 96 95 92 81 74 63 50 40 32 29 26 23 25 25 27 30 34 34 37 43 52 63 70 75 81 85 87 85 96